Time,TemperatureF,DewpointF,PressureIn,WindDirection,WindDirectionDegrees,WindSpeedMPH,WindSpeedGustMPH,Humidity,HourlyPrecipIn,Conditions,Clouds,dailyrainin,SoftwareType,DateUTC
2013-05-16 00:00:00,49.5,48.0,29.62,NW,311,0.0,-999.0,95,-99.99,,,0.06,weatherlink.com 1.10,2013-05-16 04:00:00,
2013-05-16 00:15:00,48.9,47.0,29.62,NW,316,0.0,-999.0,92,-99.99,,,0.06,weatherlink.com 1.10,2013-05-16 04:15:00,
2013-05-16 00:30:00,48.2,46.0,29.63,SW,230,2.0,-999.0,91,-99.99,,,0.00,weatherlink.com 1.10,2013-05-16 04:30:00,
2013-05-16 00:45:00,51.2,50.0,29.63,SW,231,0.0,-999.0,94,-99.99,,,0.00,weatherlink.com 1.10,2013-05-16 04:45:00,
2013-05-16 01:00:00,54.6,51.0,29.63,SSW,206,0.0,-999.0,86,-99.99,,,0.00,weatherlink.com 1.10,2013-05-16 05:00:00,
2013-05-16 01:15:00,54.9,50.0,29.63,West,264,3.0,-999.0,84,-99.99,,,0.00,weatherlink.com 1.10,2013-05-16 05:15:00,
2013-05-16 01:30:00,54.3,49.0,29.63,SW,233,4.0,-999.0,83,-99.99,,,0.00,weatherlink.com 1.10,2013-05-16 05:30:00,
2013-05-16 01:45:00,54.9,49.0,29.64,WSW,245,0.0,-999.0,81,-99.99,,,0.00,weatherlink.com 1.10,2013-05-16 05:45:00,
2013-05-16 02:00:00,52.7,47.0,29.64,WSW,245,0.0,-999.0,82,-99.99,,,0.00,weatherlink.com 1.10,2013-05-16 06:00:00,
2013-05-16 02:15:00,50.5,47.0,29.64,WSW,245,0.0,-999.0,86,-99.99,,,0.00,weatherlink.com 1.10,2013-05-16 06:15:00,
2013-05-16 02:30:00,48.9,46.0,29.65,WSW,239,0.0,-999.0,88,-99.99,,,0.00,weatherlink.com 1.10,2013-05-16 06:30:00,
2013-05-16 02:45:00,47.4,45.0,29.64,WSW,238,0.0,-999.0,90,-99.99,,,0.00,weatherlink.com 1.10,2013-05-16 06:45:00,
2013-05-16 03:01:00,46.1,44.0,29.64,WSW,238,0.0,-999.0,91,-99.99,,,0.00,weatherlink.com 1.10,2013-05-16 07:01:00,
2013-05-16 03:16:00,45.6,44.0,29.64,WSW,238,3.0,-999.0,92,-99.99,,,0.00,weatherlink.com 1.10,2013-05-16 07:16:00,
2013-05-16 03:31:00,48.3,45.0,29.65,SW,217,3.0,-999.0,89,-99.99,,,0.00,weatherlink.com 1.10,2013-05-16 07:31:00,
2013-05-16 03:46:00,50.5,45.0,29.65,SW,225,2.0,-999.0,82,-99.99,,,0.00,weatherlink.com 1.10,2013-05-16 07:46:00,
2013-05-16 04:01:00,49.7,44.0,29.64,SW,225,0.0,-999.0,82,-99.99,,,0.00,weatherlink.com 1.10,2013-05-16 08:01:00,
2013-05-16 04:16:00,48.2,43.0,29.64,SW,225,2.0,-999.0,83,-99.99,,,0.00,weatherlink.com 1.10,2013-05-16 08:16:00,
2013-05-16 04:31:00,47.3,43.0,29.64,WSW,255,0.0,-999.0,86,-99.99,,,0.00,weatherlink.com 1.10,2013-05-16 08:31:00,
2013-05-16 04:46:00,45.1,42.0,29.65,WSW,255,0.0,-999.0,89,-99.99,,,0.00,weatherlink.com 1.10,2013-05-16 08:46:00,
2013-05-16 05:01:00,44.3,42.0,29.65,WSW,255,0.0,-999.0,90,-99.99,,,0.00,weatherlink.com 1.10,2013-05-16 09:01:00,
2013-05-16 05:16:00,44.7,43.0,29.65,WSW,255,3.0,-999.0,92,-99.99,,,0.00,weatherlink.com 1.10,2013-05-16 09:16:00,
2013-05-16 05:31:00,43.6,41.0,29.65,East,82,2.0,-999.0,91,-99.99,,,0.00,weatherlink.com 1.10,2013-05-16 09:31:00,
2013-05-16 05:46:00,44.3,42.0,29.66,East,79,0.0,-999.0,91,-99.99,,,0.00,weatherlink.com 1.10,2013-05-16 09:46:00,
2013-05-16 06:01:00,44.6,42.0,29.66,SW,231,1.0,-999.0,91,-99.99,,,0.00,weatherlink.com 1.10,2013-05-16 10:01:00,
2013-05-16 06:16:00,46.8,44.0,29.66,SSW,212,0.0,-999.0,89,-99.99,,,0.00,weatherlink.com 1.10,2013-05-16 10:16:00,
2013-05-16 06:31:00,50.1,46.0,29.66,West,268,4.0,-999.0,84,-99.99,,,0.00,weatherlink.com 1.10,2013-05-16 10:31:00,
2013-05-16 06:46:00,52.6,46.0,29.67,SW,219,1.0,-999.0,78,-99.99,,,0.00,weatherlink.com 1.10,2013-05-16 10:46:00,
2013-05-16 07:01:00,55.5,46.0,29.67,SW,224,6.0,-999.0,71,-99.99,,,0.00,weatherlink.com 1.10,2013-05-16 11:01:00,
2013-05-16 07:16:00,56.8,46.0,29.67,SW,223,6.0,-999.0,67,-99.99,,,0.00,weatherlink.com 1.10,2013-05-16 11:16:00,
2013-05-16 07:31:00,57.6,45.0,29.67,SW,236,10.0,-999.0,64,-99.99,,,0.00,weatherlink.com 1.10,2013-05-16 11:31:00,
2013-05-16 07:46:00,57.9,46.0,29.67,SW,223,7.0,-999.0,64,-99.99,,,0.00,weatherlink.com 1.10,2013-05-16 11:46:00,
2013-05-16 08:01:00,58.7,46.0,29.67,SW,221,7.0,-999.0,63,-99.99,,,0.00,weatherlink.com 1.10,2013-05-16 12:01:00,
2013-05-16 08:16:00,58.9,48.0,29.68,SW,219,13.0,-999.0,67,-99.99,,,0.00,weatherlink.com 1.10,2013-05-16 12:16:00,
2013-05-16 08:31:00,59.2,47.0,29.68,WSW,257,5.0,-999.0,65,-99.99,,,0.00,weatherlink.com 1.10,2013-05-16 12:31:00,
2013-05-16 08:46:00,60.1,49.0,29.68,SW,225,11.0,-999.0,66,-99.99,,,0.00,weatherlink.com 1.10,2013-05-16 12:46:00,
2013-05-16 09:01:00,61.2,48.0,29.68,SSW,193,11.0,-999.0,63,-99.99,,,0.00,weatherlink.com 1.10,2013-05-16 13:01:00,
2013-05-16 09:17:00,62.3,48.0,29.68,SW,224,14.0,-999.0,59,-99.99,,,0.00,weatherlink.com 1.10,2013-05-16 13:17:00,
2013-05-16 09:32:00,63.1,46.0,29.68,SW,224,16.0,-999.0,54,-99.99,,,0.00,weatherlink.com 1.10,2013-05-16 13:32:00,
2013-05-16 09:47:00,64.0,47.0,29.68,South,188,10.0,-999.0,54,-99.99,,,0.00,weatherlink.com 1.10,2013-05-16 13:47:00,
2013-05-16 10:02:00,65.1,47.0,29.68,SSW,195,10.0,-999.0,52,-99.99,,,0.00,weatherlink.com 1.10,2013-05-16 14:02:00,
2013-05-16 10:17:00,66.4,45.0,29.68,SSW,212,8.0,-999.0,46,-99.99,,,0.00,weatherlink.com 1.10,2013-05-16 14:17:00,
2013-05-16 10:32:00,67.8,47.0,29.68,WNW,293,3.0,-999.0,48,-99.99,,,0.00,weatherlink.com 1.10,2013-05-16 14:32:00,
2013-05-16 10:47:00,68.4,47.0,29.67,SW,215,14.0,-999.0,46,-99.99,,,0.00,weatherlink.com 1.10,2013-05-16 14:47:00,
2013-05-16 11:02:00,69.0,45.0,29.67,SSW,212,15.0,-999.0,42,-99.99,,,0.00,weatherlink.com 1.10,2013-05-16 15:02:00,
2013-05-16 11:17:00,69.6,46.0,29.67,SW,215,15.0,-999.0,43,-99.99,,,0.00,weatherlink.com 1.10,2013-05-16 15:17:00,
2013-05-16 11:32:00,70.8,49.0,29.66,SSW,209,10.0,-999.0,46,-99.99,,,0.00,weatherlink.com 1.10,2013-05-16 15:32:00,
2013-05-16 11:47:00,72.4,42.0,29.66,SW,228,10.0,-999.0,34,-99.99,,,0.00,weatherlink.com 1.10,2013-05-16 15:47:00,
2013-05-16 12:02:00,73.4,43.0,29.65,WSW,254,16.0,-999.0,33,-99.99,,,0.00,weatherlink.com 1.10,2013-05-16 16:02:00,
2013-05-16 12:17:00,74.0,40.0,29.65,SSW,212,11.0,-999.0,29,-99.99,,,0.00,weatherlink.com 1.10,2013-05-16 16:17:00,
2013-05-16 12:32:00,74.7,39.0,29.64,NW,314,15.0,-999.0,28,-99.99,,,0.00,weatherlink.com 1.10,2013-05-16 16:32:00,
2013-05-16 12:47:00,74.7,39.0,29.64,WSW,252,14.0,-999.0,28,-99.99,,,0.00,weatherlink.com 1.10,2013-05-16 16:47:00,
2013-05-16 13:02:00,74.6,38.0,29.63,WNW,293,17.0,-999.0,27,-99.99,,,0.00,weatherlink.com 1.10,2013-05-16 17:02:00,
2013-05-16 13:17:00,74.4,42.0,29.63,West,266,20.0,-999.0,31,-99.99,,,0.00,weatherlink.com 1.10,2013-05-16 17:17:00,
2013-05-16 13:32:00,75.4,40.0,29.63,WSW,258,28.0,-999.0,28,-99.99,,,0.00,weatherlink.com 1.10,2013-05-16 17:32:00,
2013-05-16 13:47:00,75.2,40.0,29.63,WNW,286,12.0,-999.0,28,-99.99,,,0.00,weatherlink.com 1.10,2013-05-16 17:47:00,
2013-05-16 14:02:00,74.4,38.0,29.64,West,278,23.0,-999.0,27,-99.99,,,0.00,weatherlink.com 1.10,2013-05-16 18:02:00,
2013-05-16 14:17:00,74.9,40.0,29.63,WSW,255,18.0,-999.0,28,-99.99,,,0.00,weatherlink.com 1.10,2013-05-16 18:17:00,
2013-05-16 14:32:00,73.9,38.0,29.64,WNW,293,16.0,-999.0,27,-99.99,,,0.00,weatherlink.com 1.10,2013-05-16 18:32:00,
2013-05-16 14:47:00,74.4,38.0,29.65,WNW,286,16.0,-999.0,27,-99.99,,,0.00,weatherlink.com 1.10,2013-05-16 18:47:00,
2013-05-16 15:02:00,76.5,38.0,29.63,WSW,257,11.0,-999.0,25,-99.99,,,0.00,weatherlink.com 1.10,2013-05-16 19:02:00,
2013-05-16 15:17:00,76.8,38.0,29.63,WSW,258,18.0,-999.0,25,-99.99,,,0.00,weatherlink.com 1.10,2013-05-16 19:17:00,
2013-05-16 15:32:00,76.7,38.0,29.63,WNW,286,8.0,-999.0,25,-99.99,,,0.00,weatherlink.com 1.10,2013-05-16 19:32:00,
2013-05-16 15:47:00,75.8,36.0,29.63,WSW,253,20.0,-999.0,24,-99.99,,,0.00,weatherlink.com 1.10,2013-05-16 19:47:00,
2013-05-16 16:02:00,73.7,36.0,29.63,WNW,285,12.0,-999.0,25,-99.99,,,0.00,weatherlink.com 1.10,2013-05-16 20:02:00,
2013-05-16 16:18:00,73.3,37.0,29.64,WSW,243,11.0,-999.0,27,-99.99,,,0.00,weatherlink.com 1.10,2013-05-16 20:18:00,
2013-05-16 16:33:00,74.3,38.0,29.64,NW,316,12.0,-999.0,27,-99.99,,,0.00,weatherlink.com 1.10,2013-05-16 20:33:00,
2013-05-16 16:48:00,75.6,39.0,29.65,West,264,9.0,-999.0,27,-99.99,,,0.00,weatherlink.com 1.10,2013-05-16 20:48:00,
2013-05-16 17:03:00,76.1,39.0,29.65,WNW,290,4.0,-999.0,26,-99.99,,,0.00,weatherlink.com 1.10,2013-05-16 21:03:00,
2013-05-16 17:18:00,75.5,40.0,29.65,NNW,338,6.0,-999.0,28,-99.99,,,0.00,weatherlink.com 1.10,2013-05-16 21:18:00,
2013-05-16 17:33:00,75.3,39.0,29.66,North,355,4.0,-999.0,27,-99.99,,,0.00,weatherlink.com 1.10,2013-05-16 21:33:00,
2013-05-16 17:48:00,67.4,45.0,29.67,NE,47,7.0,-999.0,44,-99.99,,,0.00,weatherlink.com 1.10,2013-05-16 21:48:00,
2013-05-16 18:03:00,65.5,45.0,29.69,North,11,13.0,-999.0,48,-99.99,,,0.00,weatherlink.com 1.10,2013-05-16 22:03:00,
2013-05-16 18:18:00,62.5,46.0,29.70,North,349,7.0,-999.0,55,-99.99,,,0.00,weatherlink.com 1.10,2013-05-16 22:18:00,
2013-05-16 18:33:00,61.4,46.0,29.71,NE,36,11.0,-999.0,58,-99.99,,,0.00,weatherlink.com 1.10,2013-05-16 22:33:00,
2013-05-16 18:48:00,60.2,46.0,29.72,NNE,26,13.0,-999.0,59,-99.99,,,0.00,weatherlink.com 1.10,2013-05-16 22:48:00,
2013-05-16 19:03:00,60.0,46.0,29.73,NNE,16,6.0,-999.0,60,-99.99,,,0.00,weatherlink.com 1.10,2013-05-16 23:03:00,
2013-05-16 19:18:00,59.7,46.0,29.74,North,359,4.0,-999.0,60,-99.99,,,0.00,weatherlink.com 1.10,2013-05-16 23:18:00,
2013-05-16 19:33:00,58.6,45.0,29.75,NNE,17,2.0,-999.0,62,-99.99,,,0.00,weatherlink.com 1.10,2013-05-16 23:33:00,
2013-05-16 19:48:00,58.2,45.0,29.76,North,8,6.0,-999.0,61,-99.99,,,0.00,weatherlink.com 1.10,2013-05-16 23:48:00,
2013-05-16 20:03:00,57.8,45.0,29.77,North,1,3.0,-999.0,62,-99.99,,,0.00,weatherlink.com 1.10,2013-05-17 00:03:00,
2013-05-16 20:18:00,57.0,44.0,29.79,North,8,5.0,-999.0,63,-99.99,,,0.00,weatherlink.com 1.10,2013-05-17 00:18:00,
2013-05-16 20:33:00,56.3,45.0,29.80,NNE,13,10.0,-999.0,65,-99.99,,,0.00,weatherlink.com 1.10,2013-05-17 00:33:00,
2013-05-16 20:48:00,55.4,44.0,29.80,NNE,22,4.0,-999.0,66,-99.99,,,0.00,weatherlink.com 1.10,2013-05-17 00:48:00,
2013-05-16 21:03:00,55.2,44.0,29.81,North,7,3.0,-999.0,65,-99.99,,,0.00,weatherlink.com 1.10,2013-05-17 01:03:00,
2013-05-16 21:18:00,55.3,43.0,29.82,NNE,23,3.0,-999.0,64,-99.99,,,0.00,weatherlink.com 1.10,2013-05-17 01:18:00,
2013-05-16 21:33:00,55.6,43.0,29.83,North,1,5.0,-999.0,62,-99.99,,,0.00,weatherlink.com 1.10,2013-05-17 01:33:00,
2013-05-16 21:48:00,55.4,42.0,29.84,North,1,8.0,-999.0,60,-99.99,,,0.00,weatherlink.com 1.10,2013-05-17 01:48:00,
2013-05-16 22:03:00,55.5,42.0,29.85,NNE,17,5.0,-999.0,60,-99.99,,,0.00,weatherlink.com 1.10,2013-05-17 02:03:00,
2013-05-16 22:18:00,55.5,42.0,29.85,NNE,32,4.0,-999.0,60,-99.99,,,0.00,weatherlink.com 1.10,2013-05-17 02:18:00,
2013-05-16 22:33:00,55.2,42.0,29.85,North,1,1.0,-999.0,61,-99.99,,,0.00,weatherlink.com 1.10,2013-05-17 02:33:00,
2013-05-16 22:48:00,55.1,42.0,29.85,NNE,24,4.0,-999.0,61,-99.99,,,0.00,weatherlink.com 1.10,2013-05-17 02:48:00,
2013-05-16 23:03:00,54.8,41.0,29.86,NNE,18,5.0,-999.0,61,-99.99,,,0.00,weatherlink.com 1.10,2013-05-17 03:03:00,
2013-05-16 23:18:00,54.3,42.0,29.86,NNE,14,12.0,-999.0,63,-99.99,,,0.00,weatherlink.com 1.10,2013-05-17 03:18:00,
2013-05-16 23:33:00,54.0,42.0,29.86,NNE,25,8.0,-999.0,63,-99.99,,,0.00,weatherlink.com 1.10,2013-05-17 03:33:00,
2013-05-16 23:48:00,53.4,42.0,29.86,NNE,18,8.0,-999.0,65,-99.99,,,0.00,weatherlink.com 1.10,2013-05-17 03:48:00,